Weather History for Walhalla, ND

Change the Weather History Date:

Saturday, February 2, 2013

  Actual Average (KGAF) Record (KGAF)
Temperature  
Mean Temperature -6 °F -  
Max Temperature 8 °F 13 °F 52 °F (1991)
Min Temperature -20 °F -4 °F -30 °F (1949)
Degree Days  
Heating Degree Days 71    
Moisture  
Dew Point -8 °F    
Average Humidity 77    
Maximum Humidity 85    
Minimum Humidity 70    
Precipitation  
Precipitation 0.00 in - - ()
Sea Level Pressure  
Sea Level Pressure 30.05 in    
Wind  
Wind Speed 5 mph (SW)    
Max Wind Speed 16 mph    
Max Gust Speed 23 mph    
Visibility 10 miles    
Events Snow    
Averages and records for this station are not official NWS values.
T = Trace of Precipitation, MM = Missing Value Source: NWS Daily Summary

Daily Weather History Graph

Daily Weather History Graph

Search for Another Location

Airport:

Trip Planner

Search our weather history database for the weather conditions in past years. The results will help you decide how hot, cold, wet, or windy it might be!

Date:

Astronomy

Feb. 02, 2013 Rise Set
Actual Time 8:00 AM CST 5:31 PM CST
Civil Twilight 7:26 AM CST 6:05 PM CST
Nautical Twilight 6:48 AM CST 6:43 PM CST
Astronomical Twilight 6:11 AM CST 7:20 PM CST
Moon 12:16 AM CST (2/2) 10:31 AM CST (2/2)
Length of Visible Light 10h 38m
Length of Day
9h 31m
Waning Gibbous, 59% of the Moon is Illuminated
Feb 2
Waning Gibbous
Feb 3
Last Quarter
Feb 10
New
Feb 17
First Quarter
Feb 25
Full

Hourly Weather History & Observations

Time (CST) Temp. Windchill Dew Point Humidity Pressure Visibility Wind Dir Wind Speed Gust Speed Precip Events Conditions
12:15 AM -14.8 °F -29.1 °F -18.4 °F 84% 30.16 in 10.0 mi NW 5.8 mph - N/A   Scattered Clouds
12:35 AM -13.0 °F -25.1 °F -18.4 °F 77% 30.16 in - NW 4.6 mph - N/A   Clear
12:55 AM -13.0 °F -22.7 °F -18.4 °F 77% 30.16 in - WNW 3.5 mph - N/A   Clear
1:15 AM -13.0 °F -22.7 °F -18.4 °F 77% 30.16 in - WNW 3.5 mph - N/A   Clear
1:35 AM -13.0 °F -25.1 °F -18.4 °F 77% 30.16 in 10.0 mi WNW 4.6 mph - N/A   Clear
1:55 AM -16.6 °F -26.8 °F -20.2 °F 84% 30.17 in 10.0 mi NW 3.5 mph - N/A   Clear
2:15 AM -13.0 °F -22.7 °F -18.4 °F 77% 30.17 in 10.0 mi NW 3.5 mph - N/A   Clear
2:35 AM -16.6 °F - -20.2 °F 84% 30.17 in 10.0 mi Calm Calm - N/A   Clear
2:55 AM -16.6 °F - -22.0 °F 76% 30.17 in 10.0 mi Calm Calm - N/A   Clear
3:15 AM -20.2 °F - -25.6 °F 76% 30.17 in - Calm Calm - N/A   Clear
3:35 AM -20.2 °F - -25.6 °F 76% 30.17 in - Calm Calm - N/A   Clear
3:55 AM -18.4 °F - -23.8 °F 76% 30.16 in - Calm Calm - N/A   Clear
4:15 AM -18.4 °F -28.9 °F -25.6 °F 70% 30.16 in - South 3.5 mph - N/A   Partly Cloudy
4:35 AM -18.4 °F - -23.8 °F 76% 30.15 in - Calm Calm - N/A   Mostly Cloudy
4:55 AM -18.4 °F -31.4 °F -22.0 °F 84% 30.14 in - South 4.6 mph - N/A   Overcast
5:15 AM -16.6 °F - -22.0 °F 76% 30.14 in - Calm Calm - N/A   Overcast
5:35 AM -16.6 °F -31.3 °F -20.2 °F 84% 30.13 in - SSW 5.8 mph - N/A   Overcast
6:15 AM -13.0 °F -25.1 °F -18.4 °F 77% 30.13 in - SSW 4.6 mph - N/A   Overcast
6:35 AM -13.0 °F - -18.4 °F 77% 30.12 in - Calm Calm - N/A   Overcast
6:55 AM -13.0 °F -22.7 °F -20.2 °F 70% 30.12 in - South 3.5 mph - N/A   Overcast
7:15 AM -13.0 °F -25.1 °F -18.4 °F 77% 30.11 in - South 4.6 mph - N/A   Overcast
7:35 AM -13.0 °F -22.7 °F -18.4 °F 77% 30.09 in - South 3.5 mph - N/A   Overcast
7:55 AM -11.2 °F -20.6 °F -16.6 °F 77% 30.08 in - ESE 3.5 mph - N/A   Overcast
8:15 AM -9.4 °F - -14.8 °F 77% 30.08 in - Calm Calm - N/A   Overcast
8:35 AM -7.6 °F -18.8 °F -11.2 °F 84% 30.07 in - SSE 4.6 mph - N/A   Unknown
8:55 AM -9.4 °F -20.9 °F -13.0 °F 84% 30.05 in - ESE 4.6 mph - N/A   Unknown
9:15 AM -5.8 °F -14.5 °F -11.2 °F 77% 30.04 in - South 3.5 mph - N/A   Overcast
9:35 AM -4.0 °F -16.3 °F -9.4 °F 78% 30.02 in - South 5.8 mph - N/A   Overcast
9:55 AM -2.2 °F -14.2 °F -9.4 °F 71% 30.01 in - SSE 5.8 mph - N/A Snow Heavy Snow
10:15 AM -2.2 °F -15.6 °F -7.6 °F 78% 30.00 in - SSE 6.9 mph - N/A   Overcast
10:35 AM -2.2 °F -15.6 °F -7.6 °F 78% 30.00 in - SSE 6.9 mph - N/A   Overcast
10:55 AM -0.4 °F -13.4 °F -7.6 °F 72% 29.99 in - SSE 6.9 mph - N/A   Overcast
11:15 AM -0.4 °F -13.4 °F -5.8 °F 78% 29.99 in - SSE 6.9 mph - N/A   Scattered Clouds
11:35 AM -0.4 °F -12.0 °F -5.8 °F 78% 29.99 in - SSE 5.8 mph - N/A Snow Heavy Snow
11:55 AM -0.4 °F -13.4 °F -4.0 °F 85% 29.98 in - SSE 6.9 mph - N/A Snow Heavy Snow
12:15 PM 1.4 °F -12.5 °F -4.0 °F 78% 29.96 in - SSE 8.1 mph - N/A   Overcast
12:35 PM 1.4 °F -8.3 °F -4.0 °F 78% 29.97 in - SSE 4.6 mph - N/A Snow Heavy Snow
12:55 PM 1.4 °F -11.3 °F -2.2 °F 85% 29.97 in 5.0 mi SSE 6.9 mph - N/A Snow Light Snow
1:15 PM 3.2 °F -10.3 °F -2.2 °F 78% 29.95 in - SSE 8.1 mph - N/A   Mostly Cloudy
1:35 PM 3.2 °F -7.8 °F -0.4 °F 85% 29.95 in - ESE 5.8 mph - N/A Snow Heavy Snow
1:55 PM 3.2 °F -10.3 °F -0.4 °F 85% 29.95 in - ESE 8.1 mph - N/A   Unknown
2:15 PM 3.2 °F -10.3 °F -0.4 °F 85% 29.94 in - ESE 8.1 mph - N/A Snow Heavy Snow
2:35 PM 5.0 °F -9.1 °F -0.4 °F 78% 29.94 in - ESE 9.2 mph - N/A Snow Heavy Snow
2:55 PM 5.0 °F -6.9 °F -0.4 °F 78% 29.94 in - ESE 6.9 mph - N/A   Overcast
3:15 PM 5.0 °F -5.6 °F -0.4 °F 78% 29.93 in - SE 5.8 mph - N/A   Overcast
3:35 PM 6.8 °F -3.5 °F -0.4 °F 72% 29.95 in - South 5.8 mph - N/A   Overcast
3:55 PM 6.8 °F -0.1 °F -0.4 °F 72% 29.96 in - South 3.5 mph - N/A   Overcast
4:15 PM 6.8 °F - -0.4 °F 72% 29.98 in - Calm Calm - N/A   Overcast
4:35 PM 6.8 °F - 1.4 °F 79% 29.98 in 10.0 mi Calm Calm - N/A Snow Light Snow
4:55 PM 6.8 °F -3.5 °F 1.4 °F 79% 29.99 in 10.0 mi NNE 5.8 mph - N/A Snow Light Snow
5:15 PM 6.8 °F -3.5 °F 1.4 °F 79% 30.00 in 10.0 mi North 5.8 mph - N/A   Mostly Cloudy
5:35 PM 6.8 °F -3.5 °F 1.4 °F 79% 30.00 in 9.0 mi NNW 5.8 mph - N/A Snow Light Snow
5:55 PM 6.8 °F -4.8 °F 1.4 °F 79% 30.00 in 10.0 mi NNW 6.9 mph - N/A   Overcast
6:15 PM 6.8 °F -9.3 °F 1.4 °F 79% 30.01 in 10.0 mi NW 12.7 mph - N/A   Overcast
6:35 PM 6.8 °F -9.3 °F -0.4 °F 72% 30.03 in 10.0 mi NW 12.7 mph - N/A   Overcast
6:55 PM 5.0 °F -11.6 °F -0.4 °F 78% 30.04 in 10.0 mi NW 12.7 mph 17.3 mph N/A   Overcast
7:15 PM 5.0 °F -10.0 °F -0.4 °F 78% 30.04 in 10.0 mi NW 10.4 mph - N/A   Overcast
7:35 PM 5.0 °F -10.0 °F -0.4 °F 78% 30.04 in 10.0 mi NW 10.4 mph - N/A   Overcast
7:55 PM 6.8 °F -8.6 °F -0.4 °F 72% 30.04 in 10.0 mi WNW 11.5 mph 18.4 mph N/A   Overcast
8:15 PM 6.8 °F -8.6 °F -0.4 °F 72% 30.03 in 10.0 mi NW 11.5 mph - N/A   Overcast
8:35 PM 6.8 °F -9.3 °F -0.4 °F 72% 30.03 in 10.0 mi NW 12.7 mph 17.3 mph N/A Snow Light Snow
8:55 PM 6.8 °F -4.8 °F -0.4 °F 72% 30.03 in 10.0 mi WNW 6.9 mph - N/A   Overcast
9:15 PM 6.8 °F -5.9 °F -0.4 °F 72% 30.05 in 10.0 mi NW 8.1 mph - N/A   Overcast
9:35 PM 6.8 °F -5.9 °F -0.4 °F 72% 30.04 in 10.0 mi WNW 8.1 mph - N/A   Overcast
9:55 PM 6.8 °F -4.8 °F -0.4 °F 72% 30.03 in 10.0 mi WNW 6.9 mph - N/A   Overcast
10:15 PM 6.8 °F -5.9 °F 1.4 °F 79% 30.03 in 10.0 mi NW 8.1 mph - N/A   Overcast
10:35 PM 6.8 °F -8.6 °F -0.4 °F 72% 30.04 in 10.0 mi NW 11.5 mph - N/A   Overcast
10:55 PM 8.6 °F -5.5 °F 1.4 °F 73% 30.03 in 10.0 mi NW 10.4 mph - N/A   Overcast
11:15 PM 8.6 °F -6.3 °F 1.4 °F 73% 30.02 in 10.0 mi NW 11.5 mph - N/A   Overcast
11:35 PM 8.6 °F -6.3 °F 1.4 °F 73% 30.02 in 10.0 mi NW 11.5 mph 17.3 mph N/A   Overcast
11:55 PM 8.6 °F -8.9 °F 1.4 °F 73% 30.02 in 10.0 mi NW 16.1 mph 23.0 mph N/A   Overcast